Regional Weather Roundup
Issued by NWS Cleveland, OH

Home | Current Version | Previous Version | Text Only | Print | Product List | Glossary On
Versions: 1 2 3 4 5 6 7 8 9 10 11 12 13 14 15 16 17 18 19 20 21 22 23 24 25 26 27 28 29 30 31 32 33 34 35 36 37 38 39 40 41 42 43 44 45 46 47 48 49 50
000
ASUS41 KCLE 281810
RWRCLE
OHIO REGIONAL WEATHER ROUNDUP
NATIONAL WEATHER SERVICE WILMINGTON, OH
200 PM EDT TUE APR 28 2015

NOTE: "FAIR" INDICATES FEW OR NO CLOUDS BELOW 12,000 FEET WITH NO
SIGNIFICANT WEATHER AND/OR OBSTRUCTIONS TO VISIBILITY.

OHZ001>008-015>018-024>027-034-035-043-044-281900-
   NORTHWEST OHIO

CITY           SKY/WX    TMP DP  RH WIND       PRES   REMARKS
DEFIANCE       SUNNY     60  37  42 CALM      30.08F
FINDLAY        MOSUNNY   59  36  42 NW8       30.08F
TOLEDO EXPRESS MOSUNNY   59  36  42 NW8       30.08F
TOLEDO EXEC    SUNNY     59  34  39 N8        30.09F
LIMA           MOSUNNY   56  39  53 NE6       30.08F
$$

OHZ009>014-019>023-028>033-038-089-281900-
   NORTHEAST OHIO

CITY           SKY/WX    TMP DP  RH WIND       PRES   REMARKS
CLE-HOPKINS    MOSUNNY   53  38  56 N10       30.12F
CLE-LAKEFRONT  SUNNY     46  38  73 NW6       30.10F
CUY CO. ARPT   MOSUNNY   54  37  54 N10       30.10F
LORAIN-ELYRIA  SUNNY     52  37  56 N10       30.10F
ASHTABULA      SUNNY     52  36  54 NW10G18   30.08F
AKRON-CANTON   MOSUNNY   58  37  45 NW10      30.06F
WOOSTER        MOSUNNY   55  39  54 NW12      30.07F
MANSFIELD      MOSUNNY   56  36  47 N7        30.08F
YOUNGSTOWN     PTSUNNY   57  37  47 N15       30.05F
$$

OHZ042-051>053-060>062-070>072-077>081-281900-
  SOUTHWEST OHIO

CITY           SKY/WX    TMP DP  RH WIND       PRES   REMARKS
CINC-COVINGTON MOSUNNY   59  38  45 E12       30.05F
CINC-LUNKEN    SUNNY     59  40  49 E10       30.06F
HAMILTON       SUNNY     60  39  45 NE9       30.07F
DAYTON         MOSUNNY   59  36  42 VRB7      30.07F
WRIGHT-PAT AFB MOSUNNY   58  37  46 NE10      30.06F
DAYTON GENERAL SUNNY     58  37  45 N9        30.05F
WILMINGTON     SUNNY     57  37  47 NE14      30.06F
$$

OHZ036-037-039>041-045>050-054>059-063>069-073>076-082>088-281900-
  CENTRAL AND SOUTHEAST OHIO

CITY           SKY/WX    TMP DP  RH WIND       PRES   REMARKS
COLUMBUS       MOSUNNY   57  36  45 NW5G16    30.06F
OSU AIRPORT    SUNNY     58  37  45 VRB3      30.06F
BOLTON FIELD   SUNNY     57  37  47 NW5       30.07F
RICKENBACK AFB SUNNY     57  35  44 NE8       30.06F
NEWARK         MOSUNNY   59  37  44 N8        30.05F
MARION         MOSUNNY   57  36  45 N7G21     30.08F
LANCASTER      MOSUNNY   59  37  44 N5        30.06F
ZANESVILLE     MOSUNNY   58  37  45 NW10      30.05F
NEW PHILLY     SUNNY     61  37  41 N9G18     30.06F
$$


USA.gov is the U.S. government's official web portal to all federal, state and local government web resources and services.